Regional Weather Roundup
Issued by NWS Albany, NY

Home | Current Version | Previous Version | Graphics & Text | Print | Product List | Glossary On
Versions: 1 2 3 4 5 6 7 8 9 10 11 12 13 14 15 16 17 18 19 20 21 22 23 24 25 26 27 28
000
ASUS41 KALY 281610
RWRALY

NEW YORK STATE HOURLY WEATHER ROUNDUP
NATIONAL WEATHER SERVICE ALBANY NY
1200 PM EDT WED SEP 28 2016

NOTE: "FAIR" INDICATES FEW OR NO CLOUDS BELOW 12,000 FEET WITH NO
SIGNIFICANT WEATHER AND/OR NO OBSTRUCTIONS TO VISIBILITY.

NYZ032-033-038>043-046>054-057>066-NYZ062>081-082-084-281700-
EAST


CITY           SKY/WX    TMP DP  RH WIND       PRES   REMARKS
ALBANY         PTSUNNY   66  54  65 CALM      30.19S
GLENS FALLS    MOSUNNY   67  51  56 E8        30.20R
POUGHKEEPSIE   CLOUDY    64  53  67 E7        30.15S
NEWBURGH       CLOUDY    63  57  82 E14       30.17R
MONTGOMERY     CLOUDY    65  56  72 E13       30.15S
WHITE PLAINS   CLOUDY    64  57  78 VRB6      30.14R
ISLIP          CLOUDY    65  58  78 NE17      30.12R
NEW YORK CITY  CLOUDY    69  59  70 NE18      30.11R
CENTRAL PARK   CLOUDY    67  58  72 E10G26    30.15R
$$

NYZ005>009-017-018-044>046-055-056-281700-
CENTRAL


CITY           SKY/WX    TMP DP  RH WIND       PRES   REMARKS
FULTON         SUNNY     69  52  54 VRB6      30.10R
SYRACUSE       MOSUNNY   69  53  56 E13       30.09S
ROME           PTSUNNY   64  55  72 E17G24    30.17R
ELMIRA         SUNNY     70  46  42 SE13G21   30.08R
BINGHAMTON     SUNNY     66  49  54 SE12      30.11R
MONTICELLO     CLOUDY    55  54  94 E10G17    30.17S
$$

NYZ026>034-041>043-087-281700-
NORTH


CITY           SKY/WX    TMP DP  RH WIND       PRES   REMARKS
WATERTOWN      SUNNY     74  43  32 E8        30.10R
FORT DRUM      NOT AVBL
OGDENSBURG     FAIR      66  55  66 NE8       30.15S
MASSENA        SUNNY     63  53  70 E15       30.19R
SARANAC LAKE   MOSUNNY   66  48  52 S8        30.17S
PLATTSBURGH    SUNNY     65  55  70 NE7       30.21S
$$

NYZ001>004-010>016-019>021-085-281700-
WEST


CITY           SKY/WX    TMP DP  RH WIND       PRES   REMARKS
NIAGARA FALLS  PTSUNNY   73  44  35 SE10      30.02R
BUFFALO        PTSUNNY   73  44  35 E16       30.02S
DUNKIRK        CLOUDY    68  52  56 SE10      30.00S
JAMESTOWN      MOSUNNY   64  48  55 S13G18    30.02R
WELLSVILLE     SUNNY     67  47  48 S15G28    30.08S
ROCHESTER      PTSUNNY   73  40  30 SE12G22   30.05S
PENN YAN       SUNNY     73  43  33 SE13G18   30.08S
$$

             KEY
       WCI = WIND CHILL INDEX
       VSB = VISIBILITY
       HX  = HEAT INDEX
$$




USA.gov is the U.S. government's official web portal to all federal, state and local government web resources and services.